Jilin-1 Kuanfu-02B 07

operational
NORAD ID: 65938 Int'l Des: 2025-226 Owner: CGSTL Country: CN Constellation: jilin-1
LEOCIRCULARRETROGRADESSO

Über Jilin-1 Kuanfu-02B 07

Beschreibung wird geladen...

Live-Position

3D-Globus wird geladen...

Nächste Überflüge

Höhenverlauf

Altitude vs Time

uPlot chart will show altitude changes over time

Zweizeiliger Elementsatz

1 65938U 25226A 25288.64349377 .00010358 00000-0 61475-3 0 9999
2 65938 97.6680 2.7852 0014055 267.9609 92.0011 15.11445193 699
Epoch: 15. Okt. 2025 • Age: 5 hours

Aktueller Status

Höhe 552.8 km
Geschwindigkeit 7.59 km/s
Subsatellitenpunkt 68.18°N, 11.08°E
Startdatum 11. Okt. 2025
Alter 4 days
Typ other

Technische Details

Klassifizierung Payload
Masse 230.00 kg
Trockenmasse 200.00 kg
Gesamtmasse 230.00 kg
Länge 0.50 m
Durchmesser 0.50 m
Spannweite 1.50 m
Form Box + 2 pan
Hersteller CGSTL
Bus-Typ JL-1
Phasenstatus In Orbit
Besitzer/Staat CGSTL/CN

Große Konstellationen

Loading constellations...